User: anonymous   Login
Location: Chiroubles
(46.1812°N, 4.6660°E)
Time: 11:13:36
(UTC+00:00)
Language:

Cosmos 773 Rocket - Orbit

View from above orbital plane
View from above orbital plane
View from above satellite
View from above satellite

Ground track
Ground track

The orbit data is extracted from the following two-line orbital elements,

1  8344U 75094B   20296.51260317 +.00000032 +00000-0 +18773-4 0  9993
2  8344 074.0593 031.2864 0022314 343.2375 016.8039 14.39160249361402
Epoch (UTC): 22 October 2020 12:18:08
Eccentricity: 0.0022314
inclination: 74.0593°
perigee height: 745 km
apogee height: 777 km
right ascension of ascending node: 31.2864°
argument of perigee: 343.2375°
revolutions per day: 14.39160249
mean anomaly at epoch: 16.8039°
orbit number at epoch: 36140

The dashed part of the orbit path shows where the satellite is in the earth's shadow,  

DLR